Home   Weather   Cuiabá   Past weeks

Flag for Brazil Past Weather in Cuiabá, Mato Grosso, Brazil — Yesterday and Last 2 Weeks

Now
73 °F

Rain. Passing clouds.


Feels Like: 70 °F
Forecast: 74 / 90 °F
Wind: 6 mph from Northwest

Location: Cuiaba Aeroporto

Current Time: May 23, 2017 at 1:23:07 am

Latest Report: May 23, 2017 at 1:00 am


Visibility: N/A

Pressure: 29.95 "Hg

Humidity: 94%

Dew Point: 72 °F

Location of CuiabáLocation

Past Weather in Cuiabá — Graph

°F

Cuiabá Temperature Yesterday

Maximum temperature yesterday: 79 °F (at 12:00 am)
Minimum temperature yesterday: 73 °F (at 1:00 pm)
Average temperature yesterday: 76 °F

High & Low Weather Summary for the Past Weeks

 TemperatureHumidityPressure
High95 °F (May 12, 2:00 pm)94% (May 8, 1:00 am)30.04 "Hg (May 8, 1:00 am)
Low72 °F (May 11, 3:00 am)28% (May 12, 4:00 pm)29.74 "Hg (May 19, 3:00 pm)
Average81 °F78%29.89 "Hg
* Reported May 8 12:00 am — May 23 12:00 am, Cuiabá. Weather by CustomWeather, © 2017

Note: Actual official high and low records may vary slightly from our data, if they occured in-between our weather recording intervals... More about our weather records

Advertising

Cuiabá Weather History for the Previous 24 Hours

Scroll right to see more
 ConditionsComfort  
Time TempWeatherWind HumidityBarometerVisibility
12:00 am
Tue, May 23
73 °FClear.7 mph94%29.95 "Hg10 mi
11:00 pm
Mon, May 22
73 °FClear.2 mph94%29.95 "Hg10 mi
10:00 pm73 °FClear.2 mph94%29.95 "Hg10 mi
9:00 pm73 °FClear.2 mph94%29.95 "Hg10 mi
8:00 pm73 °FClear.2 mph89%29.95 "Hg10 mi
7:00 pm73 °FPassing clouds.3 mph94%29.92 "HgN/A
6:00 pm73 °FClear.No wind94%29.89 "Hg10 mi
5:00 pm75 °FSunny.5 mph89%29.89 "Hg10 mi
4:00 pm75 °FSunny.5 mph89%29.89 "Hg10 mi
3:00 pm75 °FPartly sunny.6 mph89%29.92 "HgN/A
2:00 pm73 °FBroken clouds.7 mph94%29.92 "HgN/A
1:35 pm73 °FPartly sunny.7 mph94%29.92 "HgN/A
1:00 pm73 °FRain. Low clouds.10 mph94%29.95 "Hg1 mi
12:00 pm79 °FRain. Broken clouds.2 mph94%29.98 "HgN/A
11:00 am79 °FBroken clouds.3 mph94%29.98 "HgN/A
10:00 am79 °FScattered clouds.3 mph94%29.95 "HgN/A
9:00 am77 °FBroken clouds.6 mph94%30.01 "HgN/A
8:00 am77 °FBroken clouds.5 mph94%29.98 "HgN/A
7:00 am77 °FBroken clouds.2 mph89%29.95 "HgN/A
6:00 am77 °FPartly cloudy.6 mph94%29.92 "HgN/A
5:00 am77 °FPartly cloudy.8 mph94%29.89 "HgN/A
4:00 am77 °FPartly cloudy.8 mph94%29.89 "HgN/A
3:00 am77 °FPartly cloudy.9 mph94%29.92 "HgN/A
2:00 am79 °FPartly cloudy.8 mph89%29.92 "HgN/A
1:30 am79 °FPartly cloudy.8 mph89%29.92 "HgN/A
1:00 am79 °FPassing clouds.6 mph94%29.92 "HgN/A
Weather by CustomWeather, © 2017

See weather overviewHow to use our weather pages